Weather History for New Philadelphia, OH

Change the Weather History Date:

Tuesday, October 1, 2013

  Actual Average Record
Temperature  
Mean Temperature 66 °F 58 °F  
Max Temperature 79 °F 70 °F 87 °F (1986)
Min Temperature 52 °F 46 °F 31 °F (1963)
Degree Days  
Heating Degree Days 0 8  
Month to date heating degree days 0 8  
Since 1 July heating degree days 116 114  
Cooling Degree Days 1 1  
Month to date cooling degree days 1 1  
Year to date cooling degree days 725 689  
Growing Degree Days 14 (Base 50)    
Moisture  
Dew Point 55 °F    
Average Humidity 70    
Maximum Humidity 93    
Minimum Humidity 47    
Precipitation  
Precipitation 0.00 in 0.11 in 1.46 in (1965)
Month to date precipitation 0.00 0.11  
Year to date precipitation 25.04 30.32  
Sea Level Pressure  
Sea Level Pressure 30.06 in    
Wind  
Wind Speed 2 mph (SSW)    
Max Wind Speed 12 mph    
Max Gust Speed 17 mph    
Visibility 5 miles    
Events      
T = Trace of Precipitation, MM = Missing Value Source: NWS Daily Summary

Daily Weather History Graph

Daily Weather History Graph

Search for Another Location

Airport:

Trip Planner

Search our weather history database for the weather conditions in past years. The results will help you decide how hot, cold, wet, or windy it might be!

Date:

Astronomy

Oct. 01, 2013 Rise Set
Actual Time 7:22 AM EDT 7:07 PM EDT
Civil Twilight 6:55 AM EDT 7:34 PM EDT
Nautical Twilight 6:23 AM EDT 8:06 PM EDT
Astronomical Twilight 5:51 AM EDT 8:38 PM EDT
Moon 3:54 AM EDT 5:10 PM EDT
Length of Visible Light 12h 39m
Length of Day
11h 45m
Waning Crescent, 12% of the Moon is Illuminated
Oct 1
Waning Crescent
Oct 4
New
Oct 11
First Quarter
Oct 18
Full
Oct 26
Last Quarter

Hourly Weather History & Observations

Time (EDT) Temp. Dew Point Humidity Pressure Visibility Wind Dir Wind Speed Gust Speed Precip Events Conditions
12:53 AM 55.9 °F 53.1 °F 90% 30.03 in 7.0 mi Calm Calm - N/A   Clear
1:53 AM 55.0 °F 52.0 °F 89% 30.04 in 6.0 mi Calm Calm - N/A   Clear
2:53 AM 54.0 °F 52.0 °F 93% 30.04 in 5.0 mi Calm Calm - N/A   Clear
3:47 AM 53.6 °F 51.8 °F 94% 30.04 in 1.8 mi Calm Calm - N/A   Clear
3:53 AM 53.1 °F 51.1 °F 93% 30.04 in 0.8 mi Calm Calm - N/A   Partly Cloudy
3:59 AM 53.6 °F 51.8 °F 94% 30.04 in 1.2 mi SE 3.5 mph - N/A   Scattered Clouds
4:10 AM 53.6 °F 51.8 °F 94% 30.04 in 3.0 mi Calm Calm - N/A   Mostly Cloudy
4:33 AM 53.6 °F 51.8 °F 94% 30.04 in 1.8 mi SE 3.5 mph - N/A   Scattered Clouds
4:42 AM 53.6 °F 51.8 °F 94% 30.04 in 2.5 mi Calm Calm - N/A   Clear
4:53 AM 54.0 °F 51.1 °F 90% 30.04 in 4.0 mi Calm Calm - N/A   Clear
5:08 AM 53.6 °F 51.8 °F 94% 30.05 in 1.5 mi Calm Calm - N/A   Partly Cloudy
5:18 AM 51.8 °F 50.0 °F 94% 30.05 in 2.0 mi Calm Calm - N/A   Partly Cloudy
5:27 AM 51.8 °F 50.0 °F 94% 30.05 in 1.0 mi Calm Calm - N/A   Mist
5:34 AM 51.8 °F 51.8 °F 100% 30.06 in 0.8 mi Calm Calm - N/A   Mostly Cloudy
5:36 AM 53.6 °F 51.8 °F 94% 30.06 in 1.2 mi Calm Calm - N/A   Mostly Cloudy
5:38 AM 53.6 °F 51.8 °F 94% 30.06 in 2.5 mi ESE 3.5 mph - N/A   Mostly Cloudy
5:45 AM 53.6 °F 51.8 °F 94% 30.06 in 3.0 mi Calm Calm - N/A   Overcast
5:49 AM 53.6 °F 51.8 °F 94% 30.06 in 1.5 mi Calm Calm - N/A   Overcast
5:53 AM 54.0 °F 52.0 °F 93% 30.06 in 1.0 mi Calm Calm - N/A   Overcast
6:00 AM 53.6 °F 51.8 °F 94% 30.06 in 0.8 mi Calm Calm - N/A   Overcast
6:18 AM 53.6 °F 51.8 °F 94% 30.07 in 1.0 mi Calm Calm - N/A   Overcast
6:20 AM 53.6 °F 51.8 °F 94% 30.07 in 1.2 mi Calm Calm - N/A   Overcast
6:51 AM 55.4 °F 53.6 °F 94% 30.08 in 2.0 mi Calm Calm - N/A   Overcast
6:53 AM 55.0 °F 53.1 °F 93% 30.08 in 2.0 mi Calm Calm - N/A   Overcast
7:38 AM 55.4 °F 53.6 °F 94% 30.09 in 1.2 mi Calm Calm - N/A   Mostly Cloudy
7:51 AM 55.4 °F 53.6 °F 94% 30.09 in 1.0 mi Calm Calm - N/A   Partly Cloudy
7:53 AM 55.0 °F 53.1 °F 93% 30.09 in 1.2 mi Calm Calm - N/A   Partly Cloudy
8:07 AM 55.4 °F 53.6 °F 94% 30.09 in 1.0 mi Calm Calm - N/A   Scattered Clouds
8:40 AM 57.2 °F 55.4 °F 94% 30.10 in 1.2 mi Calm Calm - N/A   Mostly Cloudy
8:53 AM 59.0 °F 55.9 °F 90% 30.11 in 1.2 mi Calm Calm - N/A   Overcast
9:25 AM 60.8 °F 57.2 °F 88% 30.11 in 2.5 mi Calm Calm - N/A   Overcast
9:35 AM 60.8 °F 57.2 °F 88% 30.11 in 4.0 mi Calm Calm - N/A   Overcast
9:53 AM 61.0 °F 57.9 °F 90% 30.11 in 5.0 mi Calm Calm - N/A   Overcast
10:04 AM 62.6 °F 57.2 °F 82% 30.12 in 5.0 mi Calm Calm - N/A   Overcast
10:53 AM 64.9 °F 59.0 °F 81% 30.11 in 10.0 mi Calm Calm - N/A   Scattered Clouds
11:53 AM 71.1 °F 60.1 °F 68% 30.09 in 10.0 mi Variable 3.5 mph - N/A   Overcast
12:21 PM 71.6 °F 60.8 °F 69% 30.09 in 10.0 mi NW 3.5 mph - N/A   Overcast
12:35 PM 71.6 °F 60.8 °F 69% 30.09 in 10.0 mi Calm Calm - N/A   Mostly Cloudy
12:53 PM 73.9 °F 66.0 °F 76% 30.08 in - West 3.5 mph - 0.01 in   Mostly Cloudy
1:53 PM 77.0 °F 57.9 °F 52% 30.06 in 10.0 mi Variable 5.8 mph - N/A   Mostly Cloudy
2:53 PM 75.9 °F 57.0 °F 52% 30.04 in 10.0 mi SW 5.8 mph - N/A   Scattered Clouds
3:53 PM 78.1 °F 57.0 °F 48% 30.03 in 10.0 mi WSW 6.9 mph - N/A   Mostly Cloudy
4:53 PM 77.0 °F 55.9 °F 48% 30.02 in 10.0 mi SSW 6.9 mph - N/A   Scattered Clouds
5:53 PM 75.9 °F 55.9 °F 50% 30.01 in 10.0 mi Variable 3.5 mph - N/A   Clear
6:53 PM 70.0 °F 57.9 °F 65% 30.02 in 10.0 mi Calm Calm - N/A   Clear
7:53 PM 64.9 °F 57.9 °F 78% 30.03 in 10.0 mi Calm Calm - N/A   Clear
8:53 PM 63.0 °F 57.9 °F 84% 30.03 in 10.0 mi Calm Calm - N/A   Clear
9:53 PM 59.0 °F 55.9 °F 90% 30.04 in 10.0 mi Calm Calm - N/A   Clear
10:53 PM 57.9 °F 55.0 °F 90% 30.05 in 10.0 mi Calm Calm - N/A   Clear
11:53 PM 57.0 °F 55.0 °F 93% 30.05 in 10.0 mi Calm Calm - N/A   Clear